Location: Milano
(45.4670°N, 9.2000°E)
Time: 19:57:29
(UTC+02:00)

ISS - Pass Details

Date: 19 May 2021
Orbit: 417 x 422 km, 51.6° (Epoch: 14 June)

Event Time Altitude Azimuth Distance (km) Brightness Sun altitude
Rises 22:04:10 0° 260° (W) 2,358 0.6 -11.0°
Reaches altitude 10° 22:06:20 10° 267° (W) 1,497 -0.3 -11.2°
Maximum altitude 22:09:33 43° 341° (NNW) 598 -2.5 -11.6°
Drops below altitude 10° 22:12:48 10° 55° (NE) 1,505 -1.0 -12.0°
Sets 22:14:59 0° 62° (ENE) 2,372 -0.1 -12.3°
